User: anonymous   Login
Location: Unspecified
(0.0000°N, 0.0000°E)
Time: 23:19:21
(UTC+00:00)
Language:

STARLINK-34986 - Orbit

View from above orbital plane
View from above orbital plane
View from above satellite
View from above satellite

Ground track
Ground track

The orbit is defined by the following mean orbital elements,

1 66446U          26145.48783625 +.00000000 +00000-0 +63466-3 0 00008
2 66446  43.0023 200.8823 0002067 287.7429  72.3197 15.27585313    06
Epoch (UTC): 25 May 2026 11:42:29
Eccentricity: 0.0002067
inclination: 43.0023°
perigee height: 482 km
apogee height: 484 km
right ascension of ascending node: 200.8823°
argument of perigee: 287.7429°
revolutions per day: 15.27585313
mean anomaly at epoch: 72.3197°

The dashed part of the orbit path shows where the satellite is in the earth's shadow,  

DLR